Hourly Data Report for October 21, 2015

All times are specified in Local Standard Time (LST). Add 1 hour to adjust for Daylight Saving Time where and when it is observed.

KUGLUKTUK A
NUNAVUT

67°49'00.000" N
115°08'38.000" W
22.60 m
2300903
71938
YCO

Download Data

Hourly Data (October 2015)
Hourly Data Report for October 21, 2015
Temp Definition
°C
Dew Point Temp Definition
°C
Rel Hum Definition
%
Wind Dir Definition
10's deg

Wind Spd Definition
km/h
Visibility Definition
km
Stn Press Definition
kPa
Hmdx Definition


Wind Chill Definition


Weather Definition


TIME
00:00 Legend Double Dagger -7.0 -9.4 83 8 15 24.1 101.97   -13 Snow Grains
01:00 Legend Double Dagger -7.3 -9.9 82 13 15 16.1 101.96   -13 Snow Grains
02:00 Legend Double Dagger -7.7 -10.0 84 13 15 16.1 101.95   -14 Snow Grains
03:00 Legend Double Dagger -8.0 -10.3 84 13 16 16.1 101.95   -15 Snow Grains
04:00 Legend Double Dagger -7.9 -10.2 84 13 15 16.1 101.94   -14 Snow Grains
05:00 Legend Double Dagger -7.8 -10.2 83 13 14 24.1 101.87   -14 Cloudy
06:00 Legend Double Dagger -8.0 -10.4 83 13 15 24.1 101.83   -14 LegendNANA
07:00 Legend Double Dagger -8.5 -10.6 85 11 18 24.1 101.77   -16 LegendNANA
08:00 Legend Double Dagger -8.8 -11.8 79 11 24 24.1 101.72   -17 Mostly Cloudy
09:00 Legend Double Dagger -8.7 -11.4 81 10 17 19.3 101.67   -16 Snow Grains
10:00 Legend Double Dagger -8.1 -10.8 81 10 20 19.3 101.64   -15 Snow Grains
11:00 Legend Double Dagger -7.1 -9.7 82 10 20 8.1 101.55   -14 Snow,Blowing Snow
12:00 Legend Double Dagger -6.2 -9.0 81 10 20 11.3 101.51   -13 Snow,Blowing Snow
13:00 Legend Double Dagger -5.4 -8.7 78 9 20 24.1 101.47   -12 Blowing Snow
14:00 Legend Double Dagger -4.9 -7.4 83 9 23 12.9 101.41   -12 Snow,Blowing Snow
15:00 Legend Double Dagger -4.3 -6.9 82 8 21 19.3 101.34   -11 Snow,Blowing Snow
16:00 Legend Double Dagger -3.9 -6.7 81 9 24 16.1 101.23   -11 Snow,Blowing Snow
17:00 Legend Double Dagger -3.7 -6.3 82 10 23 16.1 101.16   -10 Snow,Blowing Snow
18:00 Legend Double Dagger -3.5 -5.8 84 10 21 24.1 101.11   -10 Blowing Snow
19:00 Legend Double Dagger -3.3 -5.6 84 10 20 24.1 101.09   -9 LegendNANA
20:00 Legend Double Dagger -3.3 -5.6 84 10 14 24.1 101.04   -8 Snow
21:00 Legend Double Dagger -3.5 -5.7 85 10 14 24.1 100.98   -9 Snow
22:00 Legend Double Dagger -3.2 -5.5 84 9 12 24.1 100.94   -8 LegendNANA
23:00 Legend Double Dagger -3.5 -6.0 83 11 10 24.1 100.90   -7 Mostly Cloudy

Notes on Data Quality.

Legend

  • E = Estimated
  • M = Missing
  • NA = Not Available
  • ‡ = Partner data that is not subject to review by the National Climate Archives
Date modified: